Погода в Беленьком

Украина / Донецкая область     48°46′00″N   37°37′53″E
темп.,
°C
ветер,
м/с
пор.,
м/с
влажн.,
%
обл.,
%
осадки,
мм/ч
давл.,
гПа
погр.,
м
15 апреля, чт
чт1500:00+9юз35845 0.0 101691
03:00+7ююз359058 0.0 1016120
06:00+6ю3785100 0.0 1016199
09:00+10ю587432 0.3 1016673
12:00+14ю675892 0.0 10141376
15:00+14ююз7105961 1.0 10131348
18:00+13юз586249 0.8 10141314
21:00+10ююз512695 0.8 1015411
16 апреля, пт
пт1600:00+7ю49815 0.0 1015264
03:00+6ю38905 0.0 1016238
06:00+5ю37952 0.0 1017212
09:00+9ю566938 0.0 1017870
12:00+12ююз675499 0.1 10181660
15:00+12ююз6852100 0.1 10181688
18:00+11ююз46605 0.0 1017748
21:00+8ю377627 0.1 1018146
17 апреля, сб
сб1700:00+6ююз388128 0.0 1019174
03:00+5ююз35885 0.0 101998
06:00+3юз35965 0.0 1020113
09:00+7зюз45696 0.0 1021676
12:00+9зюз6561100 0.0 10211304
15:00+10зюз555795 0.1 10221365
18:00+10з655712 0.0 10211131
21:00+8з346544 0.0 1022122
18 апреля, вс
вс1800:00+8з236386 0.0 102279
03:00+6зюз22745 0.0 102114
06:00+5ссз117989 0.0 102110
09:00+9в116250 0.0 1020521
12:00+13с114835 0.0 10191466
15:00+14сз2243100 0.0 10191807
18:00+12с3454100 0.0 1019406
21:00+11с2359100 0.0 101989
19 апреля, пн
пн1900:00+10с2261100 0.0 101949
03:00+9с3471100 0.0 1019130
06:00+8ссв2477100 0.0 101994
09:00+11ссв335887 0.0 1018616
12:00+14св2243100 0.0 10171720
15:00+16св333974 0.0 10152036
18:00+15всв4644100 0.0 1015621
21:00+12всв51151100 0.0 1014401